{"data":{"norad_id":67708,"epoch":"2026-05-25T00:40:39.117792Z","epoch_age_seconds":82473,"freshness":"FRESH","line1":"1 67708U 26025R   26145.02823053  .00017098  00000+0  53049-3 0  9992","line2":"2 67708  97.2846 256.6755 0000138 148.8074 211.3177 15.33460854 17724","mean_motion":15.33460854,"eccentricity":1.38e-5,"inclination_deg":97.2846,"raan_deg":256.6755,"arg_perigee_deg":148.8074,"mean_anomaly_deg":211.3177,"bstar":0.00053049,"rev_number":1772,"period_min":93.90523378825,"perigee_km":465.40156239931,"apogee_km":465.59044667023,"semimajor_km":6843.6330045348,"source":"CELESTRAK","updated_at":"2026-05-25T13:38:21.682467Z"}}